Location: Siratepeler Tepesi
(39.1042°N, 32.0781°E)
Time: 02:04:03
(UTC+00:00)

Cosmos 2218 Rocket - Pass Details

Date: 11 April 2026
Orbit: 955 x 1005 km, 82.9° (Epoch: 13 May)

Event Time Altitude Azimuth Distance (km) Brightness Sun altitude
Exits shadow 18:21:23 37° 153° (SSE) 1,455 4.5 -21.7°
Maximum altitude 18:23:41 59° 92° (E) 1,101 3.9 -22.1°
Drops below altitude 10° 18:29:42 10° 15° (NNE) 2,692 6.5 -23.1°
Sets 18:32:14 0° 12° (NNE) 3,643 7.3 -23.5°
